When you browse on this site, cookies collect data to enhance your experience and personalize the content and advertising you see.
Visit our Privacy Policy to learn more. By continuing to use the site, you agree to this use of cookies and data.

Stündliche Wetter Soshihino

Heute, 11 August, Dienstag

Zeit Temperatur Niederschläge Wind Luftdruck Luftfeuchtigkeit
00:00 +13°C° 0 mm 2 m/S 757 mmHg 79%
01:00 +12°C° 0 mm 2 m/S 757 mmHg 82%
02:00 +10°C° 0 mm 2 m/S 758 mmHg 85%
03:00 +10°C° 0 mm 2 m/S 758 mmHg 88%
04:00 +11°C° 0 mm 1 m/S 758 mmHg 91%
05:00 +11°C° 0 mm 1 m/S 758 mmHg 94%
06:00 +13°C° 0 mm 2 m/S 758 mmHg 86%
07:00 +14°C° 0 mm 3 m/S 758 mmHg 78%
08:00 +16°C° 0 mm 3 m/S 758 mmHg 69%
09:00 +17°C° 0 mm 3 m/S 758 mmHg 67%
10:00 +18°C° 0 mm 4 m/S 758 mmHg 65%
11:00 +19°C° 0 mm 4 m/S 758 mmHg 62%
12:00 +19°C° 0 mm 4 m/S 758 mmHg 60%
13:00 +20°C° 0 mm 4 m/S 758 mmHg 57%
14:00 +20°C° 0 mm 4 m/S 758 mmHg 54%
15:00 +19°C° 0.1 mm 4 m/S 758 mmHg 59%
16:00 +19°C° 0.1 mm 4 m/S 758 mmHg 64%
17:00 +18°C° 0.1 mm 4 m/S 758 mmHg 68%
18:00 +16°C° 0 mm 3 m/S 758 mmHg 72%
19:00 +14°C° 0 mm 3 m/S 758 mmHg 76%
20:00 +14°C° 0 mm 2 m/S 758 mmHg 79%
21:00 +14°C° 0 mm 2 m/S 758 mmHg 79%
22:00 +13°C° 0 mm 2 m/S 759 mmHg 79%
23:00 +13°C° 0 mm 2 m/S 759 mmHg 78%

Morgen, 12 August, Mittwoch

Zeit Temperatur Niederschläge Wind Luftdruck Luftfeuchtigkeit
00:00 +12°C° 0 mm 2 m/S 759 mmHg 82%
01:00 +10°C° 0 mm 2 m/S 759 mmHg 86%
02:00 +9°C° 0 mm 2 m/S 759 mmHg 91%
03:00 +9°C° 0 mm 2 m/S 759 mmHg 91%
04:00 +9°C° 0 mm 2 m/S 759 mmHg 92%
05:00 +9°C° 0 mm 2 m/S 759 mmHg 92%
06:00 +10°C° 0 mm 2 m/S 759 mmHg 85%
07:00 +12°C° 0 mm 3 m/S 759 mmHg 77%
08:00 +14°C° 0 mm 3 m/S 759 mmHg 69%
09:00 +16°C° 0 mm 3 m/S 759 mmHg 64%
10:00 +17°C° 0 mm 3 m/S 759 mmHg 59%
11:00 +18°C° 0 mm 4 m/S 759 mmHg 54%
12:00 +19°C° 0 mm 4 m/S 759 mmHg 52%
13:00 +19°C° 0 mm 4 m/S 759 mmHg 51%
14:00 +19°C° 0 mm 3 m/S 758 mmHg 49%
15:00 +19°C° 0 mm 3 m/S 758 mmHg 52%
16:00 +19°C° 0 mm 3 m/S 758 mmHg 55%
17:00 +18°C° 0 mm 2 m/S 758 mmHg 58%
18:00 +17°C° 0 mm 2 m/S 758 mmHg 63%
19:00 +15°C° 0 mm 1 m/S 758 mmHg 68%
20:00 +14°C° 0 mm 1 m/S 758 mmHg 73%
21:00 +14°C° 0 mm 1 m/S 758 mmHg 74%
22:00 +13°C° 0 mm 1 m/S 758 mmHg 75%
23:00 +13°C° 0 mm 1 m/S 758 mmHg 76%

übermorgen, 13 August, Donnerstag

Zeit Temperatur Niederschläge Wind Luftdruck Luftfeuchtigkeit
00:00 +12°C° 0 mm 1 m/S 758 mmHg 80%
01:00 +11°C° 0 mm 1 m/S 758 mmHg 85%
02:00 +10°C° 0 mm 1 m/S 758 mmHg 89%
03:00 +10°C° 0 mm 1 m/S 758 mmHg 89%
04:00 +9°C° 0 mm 0 m/S 758 mmHg 88%
05:00 +9°C° 0 mm 0 m/S 757 mmHg 88%
06:00 +11°C° 0 mm 0 m/S 757 mmHg 80%
07:00 +14°C° 0 mm 1 m/S 757 mmHg 73%
08:00 +16°C° 0 mm 1 m/S 757 mmHg 65%
09:00 +16°C° 0 mm 1 m/S 757 mmHg 63%
10:00 +18°C° 0 mm 1 m/S 757 mmHg 60%
11:00 +18°C° 0 mm 1 m/S 757 mmHg 57%
12:00 +18°C° 0 mm 1 m/S 757 mmHg 58%
13:00 +18°C° 0 mm 1 m/S 757 mmHg 60%
14:00 +18°C° 0 mm 1 m/S 756 mmHg 61%
15:00 +18°C° 0 mm 1 m/S 756 mmHg 67%
16:00 +16°C° 0 mm 1 m/S 756 mmHg 72%
17:00 +15°C° 0 mm 1 m/S 756 mmHg 78%
18:00 +15°C° 0 mm 1 m/S 756 mmHg 81%
19:00 +14°C° 0 mm 1 m/S 756 mmHg 84%
20:00 +13°C° 0 mm 0 m/S 756 mmHg 87%
21:00 +12°C° 0 mm 0 m/S 756 mmHg 89%
22:00 +12°C° 0 mm 1 m/S 756 mmHg 91%
23:00 +12°C° 0 mm 1 m/S 756 mmHg 93%

14 August, Freitag

Zeit Temperatur Niederschläge Wind Luftdruck Luftfeuchtigkeit
00:00 +12°C° 0 mm 1 m/S 756 mmHg 93%
01:00 +12°C° 0 mm 1 m/S 756 mmHg 93%
02:00 +11°C° 0 mm 1 m/S 756 mmHg 93%
03:00 +11°C° 0 mm 1 m/S 756 mmHg 92%
04:00 +11°C° 0 mm 1 m/S 756 mmHg 91%
05:00 +12°C° 0 mm 1 m/S 756 mmHg 89%
06:00 +13°C° 0 mm 1 m/S 756 mmHg 86%
07:00 +14°C° 0 mm 1 m/S 756 mmHg 82%
08:00 +15°C° 0 mm 1 m/S 756 mmHg 78%
09:00 +16°C° 0 mm 1 m/S 756 mmHg 73%
10:00 +18°C° 0 mm 1 m/S 757 mmHg 69%
11:00 +19°C° 0 mm 1 m/S 757 mmHg 64%
12:00 +20°C° 0 mm 1 m/S 756 mmHg 62%
13:00 +21°C° 0 mm 1 m/S 756 mmHg 60%
14:00 +22°C° 0 mm 1 m/S 756 mmHg 58%
15:00 +21°C° 0 mm 1 m/S 756 mmHg 58%
16:00 +21°C° 0 mm 1 m/S 756 mmHg 58%
17:00 +21°C° 0 mm 1 m/S 756 mmHg 58%
18:00 +20°C° 0 mm 1 m/S 756 mmHg 65%
19:00 +18°C° 0 mm 1 m/S 756 mmHg 71%
20:00 +15°C° 0 mm 1 m/S 756 mmHg 78%
21:00 +15°C° 0 mm 1 m/S 756 mmHg 78%
22:00 +14°C° 0 mm 1 m/S 757 mmHg 79%
23:00 +13°C° 0 mm 1 m/S 757 mmHg 80%

15 August, Samstag

Zeit Temperatur Niederschläge Wind Luftdruck Luftfeuchtigkeit
00:00 +13°C° 0 mm 1 m/S 757 mmHg 80%
01:00 +13°C° 0 mm 1 m/S 757 mmHg 81%
02:00 +13°C° 0 mm 1 m/S 757 mmHg 82%
03:00 +12°C° 0 mm 1 m/S 757 mmHg 85%
04:00 +12°C° 0 mm 1 m/S 757 mmHg 87%
05:00 +12°C° 0 mm 1 m/S 757 mmHg 90%
06:00 +13°C° 0 mm 1 m/S 757 mmHg 84%
07:00 +15°C° 0 mm 1 m/S 757 mmHg 79%
08:00 +18°C° 0 mm 1 m/S 757 mmHg 73%
09:00 +20°C° 0 mm 1 m/S 757 mmHg 70%
10:00 +21°C° 0 mm 1 m/S 758 mmHg 66%
11:00 +21°C° 0 mm 2 m/S 758 mmHg 63%
12:00 +23°C° 0.1 mm 1 m/S 757 mmHg 61%
13:00 +24°C° 0.1 mm 1 m/S 757 mmHg 59%
14:00 +24°C° 0.1 mm 1 m/S 757 mmHg 57%
15:00 +24°C° 0.2 mm 1 m/S 757 mmHg 60%
16:00 +24°C° 0.2 mm 1 m/S 757 mmHg 62%
17:00 +21°C° 0.2 mm 0 m/S 757 mmHg 65%
18:00 +19°C° 0.1 mm 0 m/S 757 mmHg 73%
19:00 +17°C° 0.1 mm 0 m/S 757 mmHg 81%
20:00 +15°C° 0.1 mm 0 m/S 757 mmHg 89%
21:00 +15°C° 0 mm 0 m/S 757 mmHg 90%
22:00 +15°C° 0 mm 1 m/S 757 mmHg 91%
23:00 +15°C° 0 mm 1 m/S 757 mmHg 92%

16 August, Sonntag

Zeit Temperatur Niederschläge Wind Luftdruck Luftfeuchtigkeit
00:00 +15°C° 0 mm 1 m/S 757 mmHg 93%
01:00 +14°C° 0 mm 1 m/S 757 mmHg 93%
02:00 +14°C° 0 mm 1 m/S 757 mmHg 94%
03:00 +14°C° 0 mm 1 m/S 757 mmHg 94%
04:00 +14°C° 0 mm 1 m/S 757 mmHg 94%
05:00 +14°C° 0 mm 1 m/S 757 mmHg 95%
06:00 +15°C° 0 mm 1 m/S 757 mmHg 90%
07:00 +18°C° 0 mm 1 m/S 757 mmHg 85%
08:00 +20°C° 0 mm 1 m/S 757 mmHg 81%
09:00 +22°C° 0 mm 1 m/S 757 mmHg 74%
10:00 +23°C° 0 mm 1 m/S 757 mmHg 66%
11:00 +25°C° 0 mm 1 m/S 757 mmHg 59%
12:00 +25°C° 0 mm 1 m/S 757 mmHg 58%
13:00 +26°C° 0 mm 2 m/S 757 mmHg 57%
14:00 +26°C° 0 mm 2 m/S 757 mmHg 56%
15:00 +26°C° 0.1 mm 2 m/S 757 mmHg 58%
16:00 +26°C° 0.1 mm 2 m/S 757 mmHg 60%
17:00 +26°C° 0.1 mm 2 m/S 757 mmHg 62%
18:00 +24°C° 0 mm 2 m/S 757 mmHg 69%
19:00 +22°C° 0 mm 1 m/S 757 mmHg 77%
20:00 +20°C° 0 mm 1 m/S 757 mmHg 84%
21:00 +19°C° 0 mm 1 m/S 757 mmHg 86%
22:00 +19°C° 0 mm 1 m/S 757 mmHg 88%
23:00 +18°C° 0 mm 1 m/S 757 mmHg 90%
Mehr zeigen